This is the latest recevied weather packets stored in our database for station/object K6CED. If no packets are shown the sender has not sent any weather packets the latest 10 day(s).
| Time | Temp. | Humidity | Pressure | Rain* | Wind** | Luminosity | Snow |
|---|---|---|---|---|---|---|---|
| 1787769058 | 36.11° C | 37% | 1016.2 hPa | 0 mm | - | 803 W/m² | - |
| 1787768753 | 35.56° C | 38% | 1016 hPa | 0 mm | - | 797 W/m² | - |
| 1787768449 | 35.56° C | 38% | 1016.2 hPa | 0 mm | - | 790 W/m² | - |
| 1787768144 | 35° C | 39% | 1016.3 hPa | 0 mm | - | 784 W/m² | - |
| 1787767840 | 35° C | 39% | 1016.2 hPa | 0 mm | - | 775 W/m² | - |
| 1787767535 | 35° C | 39% | 1016.4 hPa | 0 mm | - | 767 W/m² | - |
| 1787767234 | 35° C | 39% | 1016.4 hPa | 0 mm | - | 763 W/m² | - |
| 1787766927 | 34.44° C | 39% | 1016.3 hPa | 0 mm | - | 755 W/m² | - |
| 1787766621 | 34.44° C | 39% | 1016.4 hPa | 0 mm | - | 745 W/m² | - |
| 1787766321 | 33.89° C | 39% | 1016.2 hPa | 0 mm | - | 736 W/m² | - |
| 1787766015 | 34.44° C | 39% | 1016.3 hPa | 0 mm | - | 725 W/m² | - |
| 1787765712 | 34.44° C | 39% | 1016.2 hPa | 0 mm | - | 714 W/m² | - |
| 1787765408 | 34.44° C | 38% | 1016.2 hPa | 0 mm | - | 702 W/m² | - |
| 1787765107 | 33.89° C | 40% | 1016.4 hPa | 0 mm | - | 689 W/m² | - |
| 1787764802 | 34.44° C | 39% | 1016 hPa | 0 mm | - | 675 W/m² | - |
| 1787764497 | 33.89° C | 40% | 1016.1 hPa | 0 mm | - | 663 W/m² | - |
| 1787764192 | 33.89° C | 39% | 1015.9 hPa | 0 mm | - | 644 W/m² | - |
| 1787763888 | 33.89° C | 40% | 1016.3 hPa | 0 mm | - | 636 W/m² | - |
| 1787763583 | 33.89° C | 39% | 1015.9 hPa | 0 mm | - | 616 W/m² | - |
| 1787763278 | 33.33° C | 41% | 1015.9 hPa | 0 mm | - | 597 W/m² | - |
| 1787762977 | 32.78° C | 42% | 1015.9 hPa | 0 mm | - | 577 W/m² | - |
| 1787762672 | 32.22° C | 42% | 1016.1 hPa | 0 mm | - | 561 W/m² | - |
| 1787762370 | 32.22° C | 44% | 1016 hPa | 0 mm | - | 546 W/m² | - |
| 1787762069 | 32.78° C | 45% | 1016.1 hPa | 0 mm | - | 534 W/m² | - |
| 1787761764 | 32.22° C | 46% | 1016 hPa | 0 mm | - | 522 W/m² | - |
* Rain latest hour (hover to see other rain measurements)
** Current wind speed in m/s (hover to see current wind gust speed)